Regional Weather Roundup
Issued by NWS

Home | Current Version | Previous Version | Graphics & Text | Print | Product List | Glossary On
Versions: 1 2 3 4 5 6 7 8 9 10 11 12 13 14 15 16 17 18 19 20 21 22 23 24 25 26 27 28 29 30 31 32 33 34 35 36 37 38 39 40 41 42 43 44 45 46 47 48 49 50
000
ASUS43 KMKX 242300
RWRWI

WISCONSIN REGIONAL WEATHER ROUNDUP
NATIONAL WEATHER SERVICE MILWAUKEE/SULLIVAN WI
600 PM CDT SAT SEP 24 2016

NOTE: "FAIR" INDICATES FEW OR NO CLOUDS BELOW 12,000 FEET WITH NO
SIGNIFICANT WEATHER AND/OR OBSTRUCTIONS TO VISIBILITY.

WIZ001-002-006>008-014>016-023>028-250000-
NORTHWEST WISCONSIN

CITY           SKY/WX    TMP DP  RH WIND       PRES   REMARKS
SUPERIOR ARPT  CLOUDY    60  58  94 NE8       30.06S
ASHLAND        CLOUDY    68  61  78 E3        30.09R
HAYWARD        CLOUDY    67  59  75 S8        30.09R
SIREN          CLOUDY    67  60  78 SE15G21   30.06R
CUMBERLAND     CLOUDY    64  59  82 SE8       30.09R
RICE LAKE      CLOUDY    67  59  77 SE8       30.09S
CHETEK         NOT AVBL
LADYSMITH      CLOUDY    68  58  71 SE6       30.12R
EAU CLAIRE     NOT AVBL
MENOMONIE      CLOUDY    67  61  81 SE13      30.08R
NEW RICHMOND   CLOUDY    67  60  79 SE10      30.05R
OSCEOLA        CLOUDY    68  66  96 E13G20    30.06S
$$

WIZ003>005-009-010-017-018-250000-
NORTH CENTRAL WISCONSIN

CITY           SKY/WX    TMP DP  RH WIND       PRES   REMARKS
MANITOWISH WTR NOT AVBL
ARBOR VITAE    CLEAR     67  53  61 S9        30.14S
WOODRUFF       CLEAR     67  53  61 S9        30.14S
RHINELANDER    CLEAR     65  54  67 SE9       30.16S
EAGLE RIVER    CLEAR     66  49  54 SE7       30.15S
LAND O LAKES   CLEAR     67  52  58 SE5       30.16F
PHILLIPS       CLEAR     67  58  71 E9        30.11S
TOMAHAWK       CLEAR     65  53  65 SE7       30.14S
MEDFORD        PTCLDY    64  55  71 SE10G16   30.12S
MERRILL        CLEAR     67  56  66 SE10      30.15S
$$

WIZ029-030-035-036-043>047-250000-
CENTRAL WISCONSIN

CITY           SKY/WX    TMP DP  RH WIND       PRES   REMARKS
WAUSAU         CLEAR     66  53  63 SE13      30.13S
MOSINEE        CLEAR     64  55  72 SE9       30.15S
MARSHFIELD     CLOUDY    66  57  72 SE8       30.12S
STEVENS POINT  CLEAR     65  55  71 SE8       30.14F
WAUPACA        CLOUDY    70  57  62 E8        30.15S
WAUTOMA        CLEAR     67  59  75 SE6       30.14S
WISC RAPIDS    LGT RAIN  67  60  78 SE7       30.14S
CAMP DOUGLAS   MOCLDY    66  61  82 E8        30.10F
$$

WIZ011>013-019>022-031-037>040-048>050-250000-
NORTHEAST WISCONSIN

CITY           SKY/WX    TMP DP  RH WIND       PRES   REMARKS
ANTIGO         CLEAR     63  53  68 SE10      30.17S
SHAWANO        CLEAR     69  54  58 E9        30.16S
OCONTO         NOT AVBL
STURGEON BAY   CLEAR     63  51  65 E6        30.20F
GREEN BAY      CLEAR     65  53  65 E9        30.16F
MANITOWOC      NOT AVBL
APPLETON       PTCLDY    64  52  63 E9        30.14F
CLINTONVILLE   NOT AVBL
OSHKOSH        PTCLDY    66  57  72 SE12      30.14F
$$

WIZ032>034-041-042-053>061-250000-
SOUTHWEST WISCONSIN

CITY           SKY/WX    TMP DP  RH WIND       PRES   REMARKS
LA CROSSE      CLOUDY    70  63  78 SE12      30.07S
SPARTA         CLOUDY    66  61  85 SE7       30.11R
VIROQUA        CLOUDY    66  62  89 SE9G16    30.10R
BOSCOBEL       CLOUDY    72  64  76 E6        30.08F
PRAIRIE DU CHI CLOUDY    72  64  78 E9        30.05F
PLATTEVILLE    PTCLDY    73  68  84 E9        30.09S
$$

WIZ056-057-062-063-064-067-068-250000-
SOUTH CENTRAL WISCONSIN

CITY           SKY/WX    TMP DP  RH WIND       PRES   REMARKS
REEDSBURG      NOT AVBL
BARABOO/DELLS  MOCLDY    68  59  73 E6        30.12R
LONE ROCK      NOT AVBL
MINERAL POINT  CLOUDY    72  66  83 SE8       30.11R
MADISON        CLEAR     69  61  75 E12       30.11F
MIDDLETON      CLEAR     71  62  72 SE10      30.12S
WATERTOWN      MOCLDY    67  63  86 E13       30.13F
MONROE         CLEAR     72  63  73 E10G16    30.11S
JANESVILLE     CLEAR     72  63  73 SE12      30.11F
$$

WIZ051-052-058>065-066-070>072-250000-
SOUTHEAST WISCONSIN

CITY           SKY/WX    TMP DP  RH WIND       PRES   REMARKS
MILWAUKEE      CLOUDY    67  60  78 E8        30.15F
WAUKESHA       CLOUDY    64  57  77 E13       30.16F
MILWAUKEE/TIMM CLOUDY    64  55  72 SE7       30.17F
RACINE         CLOUDY    67  60  78 E9        30.17F
BURLINGTON     PTCLDY    66  59  78 E8        30.14F
KENOSHA        MOCLDY    67  61  81 E10       30.15S
FOND DU LAC    CLOUDY    66  57  72 SE13      30.15F
SHEBOYGAN      PTCLDY    63  55  75 E7        30.17F
WEST BEND      CLOUDY    63  57  82 E9        30.17S
JUNEAU         CLOUDY    65  59  82 E12       30.15F
$$

LSZ147-162-250000-
LAKE SUPERIOR

STATION/POSITION TIME  TEMP    WIND        PRES    WAVE
                       AIR SEA DIR/SP/G            HT/PER
                 (UTC) (F)     (DEG/KT/KT) (MB)    (FT/S)
W MID LAKE BUOY  2150   63 62   90/ 16/ 17 1019.2F   2/ 4
DEVILS ISLAND    2200   62      70/ 12/ 13 1019.0F
SAXON HARBOR     2200   71      CALM  /  2 1018.6F
$$

LMZ867-665-643>646-250000-
LAKE MICHIGAN

STATION/POSITION TIME  TEMP    WIND        PRES    WAVE
                       AIR SEA DIR/SP/G            HT/PER
                 (UTC) (F)     (DEG/KT/KT) (MB)    (FT/S)
CHAMBERS ISLAND  2200   64     100/  5/  8 1022.4F
S GREEN BAY BUOY 2200   65 67  120/  8/ 10 1021.7F
N MID LAKE BUOY  2150   63 67  110/ 12/ 14 1023.0F   1/ 3
NORTHPORT PIER   2200   64     120/  7/  9 1023.0F
KEWAUNEE LAKESHO 2200   64     110/  5/  7 1022.2F
SHEBOYGAN LAKESH 2200   64     120/  8/ 10 1021.8F
PORT WASHINGTON  2200   64      60/  4/  5 1022.7F
ATWATER BUOY     2200   64      80/  4/  8 1021.6F
MILWAUKEE LAKESH 2210   63      70/  6/  6   N/A
S MID LAKE BUOY  2150   68 72   80/ 10/ 12 1021.0F   2/ 4
KENOSHA   LAKESH 2200   67      90/  8/  9 1020.7F
$$

TC  - TEMPERATURE IN CELSIUS
VSB - VISIBILITY IN STATUTE MILES
WCI - WIND CHILL INDEX
HX  - HEAT INDEX




USA.gov is the U.S. government's official web portal to all federal, state and local government web resources and services.